Time,TemperatureF,DewpointF,PressureIn,WindDirection,WindDirectionDegrees,WindSpeedMPH,WindSpeedGustMPH,Humidity,HourlyPrecipIn,Conditions,Clouds,dailyrainin,SoftwareType,DateUTC
2013-07-03 00:00:00,68.4,55.7,30.04,NW,315,3.1,8.3,64,0.00,,,0.00,open2300-1.11,2013-07-03 07:00:00,
2013-07-03 00:10:00,67.6,55.0,30.05,NW,315,0.0,8.3,64,0.00,,,0.00,open2300-1.11,2013-07-03 07:10:00,
2013-07-03 00:20:00,67.3,54.6,30.05,NW,315,0.9,8.9,64,0.00,,,0.00,open2300-1.11,2013-07-03 07:20:00,
2013-07-03 00:40:00,66.6,54.8,30.05,NW,315,2.5,7.8,66,0.00,,,0.00,open2300-1.11,2013-07-03 07:40:00,
2013-07-03 00:50:00,66.6,54.8,30.05,NW,315,3.8,3.8,66,0.00,,,0.00,open2300-1.11,2013-07-03 07:50:00,
2013-07-03 01:20:00,65.5,54.2,30.06,NNW,337,0.0,0.0,67,0.00,,,0.00,open2300-1.11,2013-07-03 08:20:00,
2013-07-03 01:30:00,65.1,53.9,30.07,WNW,292,3.8,7.8,67,0.00,,,0.00,open2300-1.11,2013-07-03 08:30:00,
2013-07-03 01:50:00,64.6,53.8,30.06,WNW,292,2.2,8.1,68,0.00,,,0.00,open2300-1.11,2013-07-03 08:50:00,
2013-07-03 02:30:00,63.7,52.9,30.07,NNW,337,6.0,8.3,68,0.00,,,0.00,open2300-1.11,2013-07-03 09:30:00,
2013-07-03 02:40:00,63.5,52.8,30.07,NW,315,5.6,6.9,68,0.00,,,0.00,open2300-1.11,2013-07-03 09:40:00,
2013-07-03 02:50:00,63.1,52.4,30.08,WNW,292,2.5,6.5,68,0.00,,,0.00,open2300-1.11,2013-07-03 09:50:00,
2013-07-03 03:10:00,62.6,52.3,30.08,WNW,292,1.8,6.9,69,0.00,,,0.00,open2300-1.11,2013-07-03 10:10:00,
2013-07-03 03:20:00,62.2,52.4,30.08,NW,315,6.7,6.7,70,0.00,,,0.00,open2300-1.11,2013-07-03 10:20:00,
2013-07-03 03:30:00,62.1,52.2,30.08,NW,315,0.0,7.2,70,0.00,,,0.00,open2300-1.11,2013-07-03 10:30:00,
2013-07-03 03:40:00,61.9,52.0,30.09,NW,315,0.0,6.0,70,0.00,,,0.00,open2300-1.11,2013-07-03 10:40:00,
2013-07-03 03:51:00,61.9,52.0,30.09,WNW,292,0.0,5.6,70,0.00,,,0.00,open2300-1.11,2013-07-03 10:51:00,
2013-07-03 04:10:00,61.5,52.1,30.09,WNW,292,0.0,2.7,71,0.00,,,0.00,open2300-1.11,2013-07-03 11:10:00,
2013-07-03 04:20:00,61.3,51.9,30.10,NW,315,2.5,7.2,71,0.00,,,0.00,open2300-1.11,2013-07-03 11:20:00,
2013-07-03 04:30:00,61.0,51.6,30.10,NW,315,6.7,7.2,71,0.00,,,0.00,open2300-1.11,2013-07-03 11:30:00,
2013-07-03 04:40:00,60.6,51.6,30.10,WNW,292,1.6,7.6,72,0.00,,,0.00,open2300-1.11,2013-07-03 11:40:00,
2013-07-03 05:00:00,60.1,51.4,30.10,WNW,292,5.8,9.8,73,0.00,,,0.00,open2300-1.11,2013-07-03 12:00:00,
2013-07-03 05:10:00,59.9,51.3,30.10,NNW,337,7.2,7.2,73,0.00,,,0.00,open2300-1.11,2013-07-03 12:10:00,
2013-07-03 05:20:00,59.9,51.3,30.11,NW,315,1.6,7.2,73,0.00,,,0.00,open2300-1.11,2013-07-03 12:20:00,
2013-07-03 05:30:00,59.5,50.9,30.11,NW,315,0.0,6.7,73,0.00,,,0.00,open2300-1.11,2013-07-03 12:30:00,
2013-07-03 05:40:00,59.4,51.1,30.11,WNW,292,0.0,6.9,74,0.00,,,0.00,open2300-1.11,2013-07-03 12:40:00,
2013-07-03 06:00:00,58.8,50.9,30.11,NW,315,0.0,7.8,75,0.00,,,0.00,open2300-1.11,2013-07-03 13:00:00,
2013-07-03 06:10:00,59.4,51.4,30.11,WNW,292,6.9,8.3,75,0.00,,,0.00,open2300-1.11,2013-07-03 13:10:00,
2013-07-03 06:20:00,59.9,52.0,30.12,NW,315,0.0,8.3,75,0.00,,,0.00,open2300-1.11,2013-07-03 13:20:00,
2013-07-03 06:30:00,60.1,52.2,30.12,West,270,6.0,7.8,75,0.00,,,0.00,open2300-1.11,2013-07-03 13:30:00,
2013-07-03 06:50:00,61.3,52.7,30.12,NW,315,0.0,7.8,73,0.00,,,0.00,open2300-1.11,2013-07-03 13:50:00,
2013-07-03 07:01:00,61.5,52.5,30.12,NW,315,0.0,7.4,72,0.00,,,0.00,open2300-1.11,2013-07-03 14:01:00,
2013-07-03 07:10:00,62.4,52.9,30.12,NW,315,0.0,7.4,71,0.00,,,0.00,open2300-1.11,2013-07-03 14:10:00,
2013-07-03 07:20:00,63.1,53.2,30.11,NNW,337,0.0,8.1,70,0.00,,,0.00,open2300-1.11,2013-07-03 14:20:00,
2013-07-03 07:30:00,64.0,53.7,30.12,NNW,337,0.0,4.5,69,0.00,,,0.00,open2300-1.11,2013-07-03 14:30:00,
2013-07-03 07:50:00,65.3,53.6,30.12,NNW,337,0.0,8.5,66,0.00,,,0.00,open2300-1.11,2013-07-03 14:50:00,
2013-07-03 08:00:00,65.7,53.9,30.12,NW,315,0.0,7.8,66,0.00,,,0.00,open2300-1.11,2013-07-03 15:00:00,
2013-07-03 08:10:00,66.4,54.2,30.13,NNW,337,0.0,6.5,65,0.00,,,0.00,open2300-1.11,2013-07-03 15:10:00,
2013-07-03 08:20:00,67.3,54.2,30.12,NW,315,0.0,8.1,63,0.00,,,0.00,open2300-1.11,2013-07-03 15:20:00,
2013-07-03 08:30:00,67.3,53.0,30.12,NW,315,7.2,11.9,60,0.00,,,0.00,open2300-1.11,2013-07-03 15:30:00,
2013-07-03 08:40:00,67.6,53.3,30.12,North,0,2.9,9.4,60,0.00,,,0.00,open2300-1.11,2013-07-03 15:40:00,
2013-07-03 08:50:00,68.2,53.8,30.12,NNW,337,4.5,8.7,60,0.00,,,0.00,open2300-1.11,2013-07-03 15:50:00,
2013-07-03 09:00:00,68.2,52.8,30.12,North,0,6.7,9.8,58,0.00,,,0.00,open2300-1.11,2013-07-03 16:00:00,
2013-07-03 09:10:00,68.5,52.7,30.12,NW,315,6.3,8.7,57,0.00,,,0.00,open2300-1.11,2013-07-03 16:10:00,
2013-07-03 09:20:00,69.6,53.7,30.12,NNW,337,6.3,8.7,57,0.00,,,0.00,open2300-1.11,2013-07-03 16:20:00,
2013-07-03 09:30:00,70.3,53.9,30.11,NNW,337,6.9,8.3,56,0.00,,,0.00,open2300-1.11,2013-07-03 16:30:00,
2013-07-03 09:40:00,70.9,53.8,30.11,NW,315,6.5,8.1,55,0.00,,,0.00,open2300-1.11,2013-07-03 16:40:00,
2013-07-03 09:50:00,71.4,53.8,30.12,NNW,337,6.0,7.8,54,0.00,,,0.00,open2300-1.11,2013-07-03 16:50:00,
2013-07-03 10:00:00,71.8,54.2,30.11,NNW,337,3.1,8.5,54,0.00,,,0.00,open2300-1.11,2013-07-03 17:00:00,
2013-07-03 10:10:00,72.1,53.5,30.12,WNW,292,5.6,7.4,52,0.00,,,0.00,open2300-1.11,2013-07-03 17:10:00,
2013-07-03 10:20:00,72.7,53.5,30.12,North,0,6.7,8.9,51,0.00,,,0.00,open2300-1.11,2013-07-03 17:20:00,
2013-07-03 10:40:00,73.8,53.3,30.11,North,0,6.0,10.1,49,0.00,,,0.00,open2300-1.11,2013-07-03 17:40:00,
2013-07-03 10:50:00,74.1,53.7,30.11,NNW,337,0.0,8.9,49,0.00,,,0.00,open2300-1.11,2013-07-03 17:50:00,
2013-07-03 11:00:00,74.5,53.5,30.10,NNW,337,5.6,7.4,48,0.00,,,0.00,open2300-1.11,2013-07-03 18:00:00,
2013-07-03 11:10:00,74.5,53.5,30.11,NW,315,5.8,8.5,48,0.00,,,0.00,open2300-1.11,2013-07-03 18:10:00,
2013-07-03 11:21:00,74.8,53.2,30.11,NW,315,5.6,9.4,47,0.00,,,0.00,open2300-1.11,2013-07-03 18:21:00,
2013-07-03 11:30:00,75.0,53.4,30.11,North,0,4.9,9.4,47,0.00,,,0.00,open2300-1.11,2013-07-03 18:30:00,
2013-07-03 11:40:00,75.9,53.0,30.11,NNW,337,0.0,9.2,45,0.00,,,0.00,open2300-1.11,2013-07-03 18:40:00,
2013-07-03 11:50:00,76.6,53.0,30.10,WNW,292,7.2,8.5,44,0.00,,,0.00,open2300-1.11,2013-07-03 18:50:00,
2013-07-03 12:00:00,76.8,52.6,30.10,NW,315,6.3,8.5,43,0.00,,,0.00,open2300-1.11,2013-07-03 19:00:00,
2013-07-03 12:10:00,77.4,53.1,30.10,NNW,337,6.9,10.1,43,0.00,,,0.00,open2300-1.11,2013-07-03 19:10:00,
2013-07-03 12:20:00,78.1,53.1,30.11,West,270,4.2,6.9,42,0.00,,,0.00,open2300-1.11,2013-07-03 19:20:00,
2013-07-03 12:30:00,78.6,53.0,30.11,North,0,7.4,7.8,41,0.00,,,0.00,open2300-1.11,2013-07-03 19:30:00,
2013-07-03 13:00:00,79.7,52.6,30.10,NNW,337,2.7,8.3,39,0.00,,,0.00,open2300-1.11,2013-07-03 20:00:00,
2013-07-03 13:10:00,80.2,51.5,30.10,NW,315,0.0,7.6,37,0.00,,,0.00,open2300-1.11,2013-07-03 20:10:00,
2013-07-03 13:20:00,80.6,51.0,30.10,WNW,292,5.8,7.8,36,0.00,,,0.00,open2300-1.11,2013-07-03 20:20:00,
2013-07-03 13:30:00,81.0,51.3,30.10,West,270,0.0,7.6,36,0.00,,,0.00,open2300-1.11,2013-07-03 20:30:00,
2013-07-03 13:40:00,81.1,50.7,30.10,NW,315,6.7,8.9,35,0.00,,,0.00,open2300-1.11,2013-07-03 20:40:00,
2013-07-03 13:50:00,81.3,50.9,30.09,NNE,22,0.0,9.8,35,0.00,,,0.00,open2300-1.11,2013-07-03 20:50:00,
2013-07-03 14:00:00,81.5,51.0,30.08,North,0,2.5,7.8,35,0.00,,,0.00,open2300-1.11,2013-07-03 21:00:00,
2013-07-03 14:10:00,82.2,50.8,30.08,WNW,292,0.0,8.1,34,0.00,,,0.00,open2300-1.11,2013-07-03 21:10:00,
2013-07-03 14:20:00,82.4,51.0,30.07,NW,315,7.8,9.2,34,0.00,,,0.00,open2300-1.11,2013-07-03 21:20:00,
2013-07-03 14:30:00,82.2,50.8,30.07,North,0,0.0,9.8,34,0.00,,,0.00,open2300-1.11,2013-07-03 21:30:00,
2013-07-03 14:41:00,82.9,51.5,30.07,North,0,0.0,8.1,34,0.00,,,0.00,open2300-1.11,2013-07-03 21:41:00,
2013-07-03 14:50:00,83.1,50.9,30.07,WNW,292,0.0,8.7,33,0.00,,,0.00,open2300-1.11,2013-07-03 21:50:00,
2013-07-03 15:00:00,83.3,51.0,30.07,NW,315,7.4,8.1,33,0.00,,,0.00,open2300-1.11,2013-07-03 22:00:00,
2013-07-03 15:10:00,83.5,51.2,30.06,NNW,337,0.0,8.3,33,0.00,,,0.00,open2300-1.11,2013-07-03 22:10:00,
2013-07-03 15:20:00,83.3,49.4,30.06,NNW,337,7.4,8.3,31,0.00,,,0.00,open2300-1.11,2013-07-03 22:20:00,
2013-07-03 15:40:00,83.7,47.9,30.05,NNE,22,0.0,8.7,29,0.00,,,0.00,open2300-1.11,2013-07-03 22:40:00,
2013-07-03 15:50:00,84.4,47.5,30.05,NNW,337,6.0,8.7,28,0.00,,,0.00,open2300-1.11,2013-07-03 22:50:00,
2013-07-03 16:00:00,84.4,47.5,30.05,WNW,292,10.1,10.1,28,0.00,,,0.00,open2300-1.11,2013-07-03 23:00:00,
2013-07-03 16:20:00,84.7,47.8,30.04,NNW,337,0.0,7.6,28,0.00,,,0.00,open2300-1.11,2013-07-03 23:20:00,
2013-07-03 16:30:00,84.9,48.0,30.03,NNW,337,7.2,9.4,28,0.00,,,0.00,open2300-1.11,2013-07-03 23:30:00,
2013-07-03 16:40:00,85.1,48.1,30.02,NNW,337,5.8,7.2,28,0.00,,,0.00,open2300-1.11,2013-07-03 23:40:00,
2013-07-03 16:50:00,85.3,48.3,30.02,NNE,22,0.0,8.7,28,0.00,,,0.00,open2300-1.11,2013-07-03 23:50:00,
2013-07-03 17:00:00,85.3,48.3,30.02,North,0,6.5,8.7,28,0.00,,,0.00,open2300-1.11,2013-07-04 00:00:00,
2013-07-03 17:10:00,85.3,48.3,30.02,North,0,0.0,0.0,28,0.00,,,0.00,open2300-1.11,2013-07-04 00:10:00,
2013-07-03 17:20:00,84.9,48.0,30.01,NE,45,8.1,114.1,28,0.00,,,0.00,open2300-1.11,2013-07-04 00:20:00,
2013-07-03 17:30:00,85.3,48.3,30.01,NNW,337,6.9,8.1,28,0.00,,,0.00,open2300-1.11,2013-07-04 00:30:00,
2013-07-03 17:40:00,85.1,49.2,30.01,North,0,0.0,8.7,29,0.00,,,0.00,open2300-1.11,2013-07-04 00:40:00,
2013-07-03 17:50:00,84.9,50.1,30.01,North,0,6.9,6.9,30,0.00,,,0.00,open2300-1.11,2013-07-04 00:50:00,
2013-07-03 18:00:00,85.3,50.4,30.01,North,0,7.2,11.4,30,0.00,,,0.00,open2300-1.11,2013-07-04 01:00:00,
2013-07-03 18:10:00,85.3,51.2,30.01,North,0,0.0,7.2,31,0.00,,,0.00,open2300-1.11,2013-07-04 01:10:00,
2013-07-03 18:30:00,87.1,53.5,30.00,North,0,0.0,7.8,32,0.00,,,0.00,open2300-1.11,2013-07-04 01:30:00,
2013-07-03 18:40:00,87.1,53.5,30.00,NNW,337,3.8,8.3,32,0.00,,,0.00,open2300-1.11,2013-07-04 01:40:00,
2013-07-03 18:50:00,86.9,54.2,30.00,NW,315,2.5,8.7,33,0.00,,,0.00,open2300-1.11,2013-07-04 01:50:00,
2013-07-03 19:00:00,86.9,54.2,30.01,NNW,337,0.0,8.3,33,0.00,,,0.00,open2300-1.11,2013-07-04 02:00:00,
2013-07-03 19:10:00,86.4,56.1,30.01,NNW,337,4.7,5.6,36,0.00,,,0.00,open2300-1.11,2013-07-04 02:10:00,
2013-07-03 19:20:00,85.1,55.8,30.01,NNW,337,5.8,11.2,37,0.00,,,0.00,open2300-1.11,2013-07-04 02:20:00,
2013-07-03 19:30:00,83.8,55.5,30.01,NNW,337,6.9,9.2,38,0.00,,,0.00,open2300-1.11,2013-07-04 02:30:00,
2013-07-03 19:40:00,83.1,55.6,30.01,NW,315,11.2,11.2,39,0.00,,,0.00,open2300-1.11,2013-07-04 02:40:00,
2013-07-03 19:50:00,82.0,55.4,30.01,NNW,337,8.5,11.2,40,0.00,,,0.00,open2300-1.11,2013-07-04 02:50:00,
2013-07-03 20:00:00,81.1,54.6,30.01,NNW,337,6.9,8.5,40,0.00,,,0.00,open2300-1.11,2013-07-04 03:00:00,
2013-07-03 20:10:00,80.1,54.3,30.01,NW,315,6.3,8.3,41,0.00,,,0.00,open2300-1.11,2013-07-04 03:10:00,
2013-07-03 20:20:00,78.6,53.6,30.01,NW,315,2.5,7.4,42,0.00,,,0.00,open2300-1.11,2013-07-04 03:20:00,
2013-07-03 20:30:00,77.2,52.9,30.01,NNW,337,6.3,6.9,43,0.00,,,0.00,open2300-1.11,2013-07-04 03:30:00,
2013-07-03 20:40:00,75.6,53.3,30.02,NW,315,0.0,8.7,46,0.00,,,0.00,open2300-1.11,2013-07-04 03:40:00,
2013-07-03 20:50:00,74.1,53.1,30.02,NNW,337,0.7,7.8,48,0.00,,,0.00,open2300-1.11,2013-07-04 03:50:00,
2013-07-03 21:00:00,72.7,52.4,30.02,WNW,292,0.0,6.3,49,0.00,,,0.00,open2300-1.11,2013-07-04 04:00:00,
2013-07-03 21:10:00,70.9,52.3,30.02,NNW,337,6.3,8.7,52,0.00,,,0.00,open2300-1.11,2013-07-04 04:10:00,
2013-07-03 21:20:00,70.0,52.5,30.03,WNW,292,1.6,8.9,54,0.00,,,0.00,open2300-1.11,2013-07-04 04:20:00,
2013-07-03 21:30:00,68.9,51.5,30.04,NNW,337,0.0,8.5,54,0.00,,,0.00,open2300-1.11,2013-07-04 04:30:00,
2013-07-03 21:40:00,68.2,51.3,30.04,NNW,337,0.0,7.8,55,0.00,,,0.00,open2300-1.11,2013-07-04 04:40:00,
2013-07-03 21:50:00,67.6,50.4,30.05,NNE,22,0.0,7.8,54,0.00,,,0.00,open2300-1.11,2013-07-04 04:50:00,
2013-07-03 22:00:00,66.7,49.5,30.05,NNE,22,0.0,2.9,54,0.00,,,0.00,open2300-1.11,2013-07-04 05:00:00,
2013-07-03 22:10:00,65.8,49.2,30.06,NNW,337,0.0,7.6,55,0.00,,,0.00,open2300-1.11,2013-07-04 05:10:00,
2013-07-03 22:20:00,65.1,49.0,30.06,NNW,337,1.6,1.6,56,0.00,,,0.00,open2300-1.11,2013-07-04 05:20:00,
2013-07-03 22:30:00,64.8,49.1,30.06,NNW,337,0.0,6.7,57,0.00,,,0.00,open2300-1.11,2013-07-04 05:30:00,
2013-07-03 22:40:00,64.2,49.0,30.07,NW,315,2.2,7.2,58,0.00,,,0.00,open2300-1.11,2013-07-04 05:40:00,
2013-07-03 22:50:00,64.0,48.9,30.07,NNW,337,6.7,6.7,58,0.00,,,0.00,open2300-1.11,2013-07-04 05:50:00,
2013-07-03 23:00:00,63.7,48.6,30.07,NW,315,0.0,6.7,58,0.00,,,0.00,open2300-1.11,2013-07-04 06:00:00,
2013-07-03 23:10:00,63.1,47.1,30.07,NW,315,3.4,3.4,56,0.00,,,0.00,open2300-1.11,2013-07-04 06:10:00,
2013-07-03 23:20:00,62.8,46.8,30.08,NW,315,0.0,6.7,56,0.00,,,0.00,open2300-1.11,2013-07-04 06:20:00,
2013-07-03 23:30:00,62.4,46.5,30.08,NNW,337,4.0,4.0,56,0.00,,,0.00,open2300-1.11,2013-07-04 06:30:00,
2013-07-03 23:40:00,61.7,46.8,30.08,NNW,337,0.9,7.8,58,0.00,,,0.00,open2300-1.11,2013-07-04 06:40:00,
2013-07-03 23:50:00,61.3,46.9,30.08,North,0,6.5,7.6,59,0.00,,,0.00,open2300-1.11,2013-07-04 06:50:00,